• Em Portugal
  • Lista de países
  • Para 7 dias
  • Temperatura da água
  • Mapas de satélite
  • Mapa do tempo
  • Widgets de tempo
  • user-avatar
    Iniciar Sessão

    Previsão horária em Rozana

    Hoje, 23 Setembro, Domingo

    Tempo Temperatura Precipitação Vento Pressão Humidade
    00:00 +11°C° 0 mm 3 m/s 728 mmHg 67%
    01:00 +12°C° 0 mm 5 m/s 728 mmHg 65%
    02:00 +11°C° 0 mm 4 m/s 728 mmHg 68%
    03:00 +11°C° 0 mm 4 m/s 728 mmHg 71%
    04:00 +10°C° 0 mm 3 m/s 727 mmHg 74%
    05:00 +10°C° 0 mm 4 m/s 727 mmHg 74%
    06:00 +10°C° 0 mm 4 m/s 727 mmHg 74%
    07:00 +11°C° 0 mm 4 m/s 727 mmHg 73%
    08:00 +12°C° 0 mm 4 m/s 727 mmHg 69%
    09:00 +13°C° 0 mm 4 m/s 727 mmHg 65%
    10:00 +14°C° 0 mm 4 m/s 727 mmHg 61%
    11:00 +14°C° 0 mm 5 m/s 726 mmHg 62%
    12:00 +14°C° 0 mm 5 m/s 726 mmHg 64%
    13:00 +13°C° 0 mm 5 m/s 725 mmHg 65%
    14:00 +13°C° 0.2 mm 5 m/s 724 mmHg 71%
    15:00 +12°C° 0.2 mm 5 m/s 723 mmHg 77%
    16:00 +12°C° 0.2 mm 5 m/s 721 mmHg 82%
    17:00 +13°C° 0.3 mm 6 m/s 720 mmHg 82%
    18:00 +14°C° 0.3 mm 7 m/s 718 mmHg 82%
    19:00 +15°C° 0.3 mm 9 m/s 717 mmHg 81%
    20:00 +14°C° 2.5 mm 7 m/s 717 mmHg 85%
    21:00 +13°C° 2.5 mm 6 m/s 717 mmHg 88%
    22:00 +13°C° 2.5 mm 5 m/s 716 mmHg 91%
    23:00 +10°C° 1.2 mm 6 m/s 718 mmHg 90%

    Amanhã, 24 Setembro, Segunda-feira

    Tempo Temperatura Precipitação Vento Pressão Humidade
    00:00 +9°C° 1.2 mm 7 m/s 719 mmHg 89%
    01:00 +7°C° 1.2 mm 9 m/s 720 mmHg 88%
    02:00 +6°C° 0.2 mm 8 m/s 722 mmHg 87%
    03:00 +6°C° 0.2 mm 7 m/s 724 mmHg 87%
    04:00 +5°C° 0.2 mm 7 m/s 725 mmHg 86%
    05:00 +5°C° 0 mm 7 m/s 726 mmHg 84%
    06:00 +5°C° 0 mm 8 m/s 727 mmHg 82%
    07:00 +5°C° 0 mm 8 m/s 727 mmHg 81%
    08:00 +6°C° 0.1 mm 8 m/s 729 mmHg 77%
    09:00 +6°C° 0.1 mm 9 m/s 730 mmHg 73%
    10:00 +6°C° 0.1 mm 9 m/s 731 mmHg 69%
    11:00 +7°C° 0.1 mm 9 m/s 731 mmHg 65%
    12:00 +8°C° 0.1 mm 9 m/s 731 mmHg 62%
    13:00 +8°C° 0.1 mm 10 m/s 732 mmHg 58%
    14:00 +8°C° 0.1 mm 9 m/s 732 mmHg 56%
    15:00 +8°C° 0.1 mm 9 m/s 732 mmHg 55%
    16:00 +8°C° 0.1 mm 9 m/s 732 mmHg 53%
    17:00 +7°C° 0 mm 8 m/s 732 mmHg 57%
    18:00 +6°C° 0 mm 7 m/s 733 mmHg 60%
    19:00 +6°C° 0 mm 5 m/s 733 mmHg 63%
    20:00 +5°C° 0 mm 5 m/s 734 mmHg 65%
    21:00 +5°C° 0 mm 5 m/s 734 mmHg 66%
    22:00 +5°C° 0 mm 5 m/s 735 mmHg 67%
    23:00 +3°C° 0 mm 5 m/s 735 mmHg 69%

    Depois de amanhã, 25 Setembro, Terça-feira

    Tempo Temperatura Precipitação Vento Pressão Humidade
    00:00 +3°C° 0 mm 5 m/s 736 mmHg 71%
    01:00 +4°C° 0 mm 4 m/s 736 mmHg 73%
    02:00 +3°C° 0 mm 4 m/s 736 mmHg 75%
    03:00 +3°C° 0 mm 4 m/s 737 mmHg 77%
    04:00 +1°C° 0 mm 4 m/s 737 mmHg 80%
    05:00 +3°C° 0 mm 4 m/s 738 mmHg 79%
    06:00 +3°C° 0 mm 4 m/s 738 mmHg 79%
    07:00 +3°C° 0 mm 4 m/s 739 mmHg 79%
    08:00 +5°C° 0 mm 4 m/s 739 mmHg 73%
    09:00 +6°C° 0 mm 5 m/s 740 mmHg 66%
    10:00 +8°C° 0 mm 5 m/s 740 mmHg 59%
    11:00 +8°C° 0 mm 5 m/s 740 mmHg 56%
    12:00 +9°C° 0 mm 5 m/s 740 mmHg 52%
    13:00 +10°C° 0 mm 5 m/s 740 mmHg 49%
    14:00 +11°C° 0 mm 4 m/s 740 mmHg 49%
    15:00 +11°C° 0 mm 4 m/s 740 mmHg 50%
    16:00 +10°C° 0 mm 4 m/s 740 mmHg 50%
    17:00 +9°C° 0 mm 3 m/s 740 mmHg 55%
    18:00 +7°C° 0 mm 2 m/s 740 mmHg 61%
    19:00 +6°C° 0 mm 2 m/s 741 mmHg 67%
    20:00 +5°C° 0 mm 2 m/s 741 mmHg 67%
    21:00 +6°C° 0 mm 1 m/s 741 mmHg 68%
    22:00 +5°C° 0 mm 1 m/s 741 mmHg 69%
    23:00 +5°C° 0 mm 1 m/s 741 mmHg 70%

    26 Setembro, Quarta-feira

    Tempo Temperatura Precipitação Vento Pressão Humidade
    00:00 +5°C° 0 mm 1 m/s 741 mmHg 70%
    01:00 +5°C° 0 mm 1 m/s 741 mmHg 70%
    02:00 +5°C° 0 mm 1 m/s 741 mmHg 70%
    03:00 +4°C° 0 mm 1 m/s 741 mmHg 71%
    04:00 +3°C° 0 mm 2 m/s 741 mmHg 71%
    05:00 +4°C° 0 mm 2 m/s 741 mmHg 71%
    06:00 +4°C° 0 mm 2 m/s 740 mmHg 70%
    07:00 +5°C° 0 mm 2 m/s 740 mmHg 70%
    08:00 +7°C° 0 mm 2 m/s 740 mmHg 63%
    09:00 +9°C° 0 mm 3 m/s 740 mmHg 56%
    10:00 +11°C° 0 mm 4 m/s 740 mmHg 49%
    11:00 +12°C° 0 mm 4 m/s 740 mmHg 46%
    12:00 +13°C° 0 mm 4 m/s 739 mmHg 43%
    13:00 +14°C° 0 mm 4 m/s 739 mmHg 41%
    14:00 +14°C° 0 mm 4 m/s 738 mmHg 43%
    15:00 +13°C° 0 mm 4 m/s 738 mmHg 45%
    16:00 +13°C° 0 mm 4 m/s 737 mmHg 47%
    17:00 +12°C° 0 mm 4 m/s 737 mmHg 50%
    18:00 +11°C° 0 mm 3 m/s 737 mmHg 52%
    19:00 +10°C° 0 mm 3 m/s 736 mmHg 55%
    20:00 +8°C° 0 mm 4 m/s 736 mmHg 56%
    21:00 +8°C° 0 mm 4 m/s 736 mmHg 56%
    22:00 +8°C° 0 mm 4 m/s 736 mmHg 57%
    23:00 +8°C° 0 mm 4 m/s 736 mmHg 58%

    27 Setembro, Quinta-feira

    Tempo Temperatura Precipitação Vento Pressão Humidade
    00:00 +8°C° 0 mm 3 m/s 736 mmHg 59%
    01:00 +8°C° 0 mm 3 m/s 736 mmHg 60%
    02:00 +8°C° 0 mm 3 m/s 735 mmHg 59%
    03:00 +9°C° 0 mm 3 m/s 735 mmHg 58%
    04:00 +9°C° 0 mm 3 m/s 735 mmHg 58%
    05:00 +9°C° 0 mm 3 m/s 735 mmHg 58%
    06:00 +9°C° 0 mm 3 m/s 735 mmHg 59%
    07:00 +10°C° 0 mm 3 m/s 735 mmHg 59%
    08:00 +12°C° 0 mm 3 m/s 735 mmHg 56%
    09:00 +14°C° 0 mm 4 m/s 735 mmHg 54%
    10:00 +17°C° 0 mm 4 m/s 735 mmHg 51%
    11:00 +18°C° 0 mm 4 m/s 735 mmHg 51%
    12:00 +19°C° 0 mm 4 m/s 735 mmHg 51%
    13:00 +20°C° 0 mm 4 m/s 735 mmHg 50%
    14:00 +20°C° 0 mm 4 m/s 734 mmHg 52%
    15:00 +20°C° 0 mm 3 m/s 734 mmHg 53%
    16:00 +20°C° 0 mm 3 m/s 733 mmHg 55%
    17:00 +18°C° 0 mm 3 m/s 733 mmHg 59%
    18:00 +16°C° 0 mm 2 m/s 733 mmHg 63%
    19:00 +15°C° 0 mm 2 m/s 733 mmHg 68%
    20:00 +14°C° 0 mm 2 m/s 732 mmHg 67%
    21:00 +14°C° 0 mm 2 m/s 732 mmHg 67%
    22:00 +14°C° 0 mm 2 m/s 732 mmHg 67%
    23:00 +13°C° 0 mm 2 m/s 732 mmHg 68%

    28 Setembro, Sexta-feira

    Tempo Temperatura Precipitação Vento Pressão Humidade
    00:00 +13°C° 0 mm 2 m/s 731 mmHg 69%
    01:00 +13°C° 0 mm 2 m/s 731 mmHg 70%
    02:00 +13°C° 0 mm 2 m/s 731 mmHg 70%
    03:00 +12°C° 0 mm 2 m/s 730 mmHg 71%
    04:00 +12°C° 0 mm 2 m/s 730 mmHg 71%
    05:00 +12°C° 0 mm 2 m/s 730 mmHg 70%
    06:00 +12°C° 0 mm 2 m/s 730 mmHg 70%
    07:00 +12°C° 0 mm 2 m/s 730 mmHg 69%
    08:00 +14°C° 0 mm 2 m/s 730 mmHg 62%
    09:00 +16°C° 0 mm 2 m/s 730 mmHg 56%
    10:00 +18°C° 0 mm 2 m/s 730 mmHg 49%
    11:00 +19°C° 0 mm 2 m/s 730 mmHg 47%
    12:00 +20°C° 0 mm 2 m/s 730 mmHg 45%
    13:00 +21°C° 0 mm 2 m/s 730 mmHg 43%
    14:00 +20°C° 0 mm 2 m/s 729 mmHg 45%
    15:00 +20°C° 0 mm 2 m/s 729 mmHg 48%
    16:00 +20°C° 0 mm 2 m/s 729 mmHg 50%
    17:00 +18°C° 0 mm 2 m/s 729 mmHg 60%
    18:00 +15°C° 0 mm 2 m/s 729 mmHg 69%
    19:00 +13°C° 0 mm 2 m/s 729 mmHg 78%
    20:00 +13°C° 0 mm 2 m/s 729 mmHg 83%
    21:00 +12°C° 0 mm 2 m/s 730 mmHg 87%
    22:00 +12°C° 0 mm 1 m/s 730 mmHg 91%
    23:00 +12°C° 0 mm 1 m/s 730 mmHg 91%
    Mostrar mais